FW0824 Weather Reports


time (UTC)temp
C
wind
direction
speed
KPH
gust
KPH
rain 1hr
cm
rain 24hr
cm
rain mn
cm
humidity
%
barometer
mb
20260502233329 18 270 9.7 24.1 0.00 0.00 0.00 35 1012.1
20260502232822 18 226 12.9 35.4 0.00 0.00 0.00 35 1012.0
20260502232323 18 220 11.3 35.4 0.00 0.00 0.00 34 1012.0
20260502231822 18 260 9.7 25.7 0.00 0.00 0.00 33 1012.0
20260502231322 18 242 9.7 25.7 0.00 0.00 0.00 33 1011.9
20260502230819 18 250 8.0 17.7 0.00 0.00 0.00 33 1011.9
20260502225819 18 247 8.0 16.1 0.00 0.00 0.00 33 1012.0
20260502225320 18 245 6.4 12.9 0.00 0.00 0.00 33 1012.2
20260502224819 18 249 8.0 24.1 0.00 0.00 0.00 33 1012.1
20260502224319 18 239 8.0 24.1 0.00 0.00 0.00 33 1012.1
20260502223817 18 232 6.4 16.1 0.00 0.00 0.00 33 1012.3
20260502223320 18 243 6.4 17.7 0.00 0.00 0.00 33 1012.3
20260502222819 18 281 9.7 25.7 0.00 0.00 0.00 33 1012.4
20260502221819 18 248 8.0 22.5 0.00 0.00 0.00 33 1012.5
20260502221319 18 212 6.4 16.1 0.00 0.00 0.00 33 1012.5
20260502220819 18 223 8.0 24.1 0.00 0.00 0.00 33 1012.4
20260502220319 18 234 9.7 24.1 0.00 0.00 0.00 33 1012.6
20260502214816 18 270 4.8 16.1 0.00 0.00 0.00 32 1013.0
20260502214315 18 260 8.0 25.7 0.00 0.00 0.00 33 1013.1
20260502213817 19 248 9.7 25.7 0.00 0.00 0.00 31 1013.1
20260502212812 19 250 9.7 24.1 0.00 0.00 0.00 32 1013.3
20260502212313 19 245 8.0 20.9 0.00 0.00 0.00 30 1013.1
20260502211811 19 160 9.7 25.7 0.00 0.00 0.00 32 1013.3
20260502210812 19 256 9.7 27.4 0.00 0.00 0.00 31 1013.5
20260502210312 18 289 11.3 27.4 0.00 0.00 0.00 32 1013.6
20260502205812 18 252 12.9 27.4 0.00 0.00 0.00 32 1013.8
20260502205313 18 259 12.9 29.0 0.00 0.00 0.00 31 1013.8
20260502204808 18 267 11.3 29.0 0.00 0.00 0.00 31 1014.1
20260502204308 18 234 11.3 24.1 0.00 0.00 0.00 31 1014.1
20260502203807 18 253 9.7 25.7 0.00 0.00 0.00 32 1014.3
20260502203307 18 237 9.7 25.7 0.00 0.00 0.00 31 1014.3
20260502202808 18 238 9.7 24.1 0.00 0.00 0.00 32 1014.4
20260502202306 18 253 9.7 30.6 0.00 0.00 0.00 32 1014.4
20260502201807 18 252 9.7 30.6 0.00 0.00 0.00 33 1014.7
20260502201303 18 227 8.0 19.3 0.00 0.00 0.00 32 1014.8
20260502200802 18 273 9.7 29.0 0.00 0.00 0.00 32 1014.9
20260502195801 18 199 11.3 29.0 0.00 0.00 0.00 32 1015.2
20260502195304 17 218 9.7 25.7 0.00 0.00 0.00 32 1015.1
20260502194301 17 245 8.0 17.7 0.00 0.00 0.00 32 1015.2
20260502193801 17 239 11.3 24.1 0.00 0.00 0.00 34 1015.4
20260502193300 17 214 9.7 24.1 0.00 0.00 0.00 33 1015.4
20260502192802 17 267 8.0 32.2 0.00 0.00 0.00 33 1015.6
20260502192300 16 273 9.7 32.2 0.00 0.00 0.00 35 1015.7
20260502191801 16 199 8.0 25.7 0.00 0.00 0.00 34 1015.6
20260502191301 16 273 11.3 25.7 0.00 0.00 0.00 33 1015.9
20260502185801 16 234 12.9 29.0 0.00 0.00 0.00 34 1016.2
20260502185301 16 244 12.9 29.0 0.00 0.00 0.00 33 1016.3
20260502184301 16 248 9.7 27.4 0.00 0.00 0.00 33 1016.3
20260502183801 16 188 9.7 25.7 0.00 0.00 0.00 34 1016.4
20260502183302 16 290 12.9 32.2 0.00 0.00 0.00 34 1016.6
20260502182304 16 254 4.8 20.9 0.00 0.00 0.00 34 1016.8
20260502181802 15 287 8.0 22.5 0.00 0.00 0.00 35 1016.9
20260502181301 15 244 8.0 22.5 0.00 0.00 0.00 34 1016.8
20260502180301 15 202 8.0 17.7 0.00 0.00 0.00 35 1017.2
20260502170302 14 205 11.3 27.4 0.00 0.00 0.00 35 1018.2
20260502164302 13 246 8.0 32.2 0.00 0.00 0.00 36 1018.3
20260502163802 13 250 8.0 20.9 0.00 0.00 0.00 36 1018.4
20260502163302 13 123 8.0 20.9 0.00 0.00 0.00 35 1018.5
20260502162802 13 255 8.0 29.0 0.00 0.00 0.00 37 1018.6
20260502161802 13 221 11.3 22.5 0.00 0.00 0.00 36 1018.7
20260502161303 13 232 9.7 24.1 0.00 0.00 0.00 37 1018.7
20260502160301 13 240 6.4 17.7 0.00 0.00 0.00 39 1018.9
20260502152233 12 286 11.3 22.5 0.00 0.00 0.00 40 1019.2
20260502150733 11 244 9.7 25.7 0.00 0.00 0.00 43 1019.3
20260502150234 11 264 9.7 25.7 0.00 0.00 0.00 42 1019.3
20260502130725 7 260 4.8 14.5 0.00 0.00 0.00 55 1019.8
20260502130225 7 253 3.2 14.5 0.00 0.00 0.00 56 1019.8
20260502123721 5 317 1.6 6.4 0.00 0.00 0.00 64 1020.0
20260502123217 5 254 1.6 4.8 0.00 0.00 0.00 67 1019.8
20260502122717 5 254 0.0 4.8 0.00 0.00 0.00 69 1019.8
20260502122217 4 255 0.0 0.0 0.00 0.00 0.00 71 1019.9
20260502121718 4 255 0.0 0.0 0.00 0.00 0.00 72 1019.8
20260502120216 3 255 0.0 0.0 0.00 0.00 0.00 72 1019.8
20260502115714 3 255 0.0 0.0 0.00 0.00 0.00 72 1019.9
20260502115210 3 255 0.0 0.0 0.00 0.00 0.00 72 1019.8
20260502114212 2 255 0.0 0.0 0.00 0.00 0.00 73 1019.9
20260502113708 2 255 0.0 0.0 0.00 0.00 0.00 73 1019.9
20260502113208 2 255 0.0 0.0 0.00 0.00 0.00 72 1019.7
20260502112707 2 255 0.0 0.0 0.00 0.00 0.00 71 1019.7
20260502112206 2 255 0.0 0.0 0.00 0.00 0.00 71 1019.6
20260502111206 2 255 0.0 0.0 0.00 0.00 0.00 70 1019.6
20260502110707 2 255 0.0 0.0 0.00 0.00 0.00 70 1019.6
20260502110208 2 255 0.0 0.0 0.00 0.00 0.00 69 1019.7
20260502105202 3 255 0.0 1.6 0.00 0.00 0.00 68 1019.6
20260502104701 3 255 0.0 1.6 0.00 0.00 0.00 67 1019.5
20260502104201 3 255 0.0 1.6 0.00 0.00 0.00 67 1019.6
20260502103201 3 255 0.0 0.0 0.00 0.00 0.00 65 1019.5
20260502102701 3 255 0.0 0.0 0.00 0.00 0.00 64 1019.5
20260502102201 3 255 0.0 0.0 0.00 0.00 0.00 64 1019.4
20260502101700 3 255 0.0 0.0 0.00 0.00 0.00 63 1019.4
20260502101201 4 255 0.0 0.0 0.00 0.00 0.00 63 1019.5
20260502100702 4 255 0.0 1.6 0.00 0.00 0.00 63 1019.4
20260502100202 4 255 0.0 3.2 0.00 0.00 0.00 63 1019.3
20260502091203 5 255 3.2 9.7 0.00 0.00 0.00 60 1019.3
20260502090701 5 261 3.2 9.7 0.00 0.00 0.00 60 1019.3
20260502070634 6 248 4.8 8.0 0.00 0.00 0.00 59 1019.6
20260502070134 6 248 4.8 8.0 0.00 0.00 0.00 59 1019.6
20260502065634 6 250 3.2 8.0 0.00 0.00 0.00 59 1019.6
20260502065135 6 252 3.2 6.4 0.00 0.00 0.00 59 1019.7
20260502064634 6 254 3.2 6.4 0.00 0.00 0.00 59 1019.6
20260502064136 6 254 3.2 6.4 0.00 0.00 0.00 60 1019.6
20260502063134 6 258 1.6 4.8 0.00 0.00 0.00 60 1019.6
20260502062634 6 258 1.6 4.8 0.00 0.00 0.00 60 1019.7
20260502062134 6 259 1.6 4.8 0.00 0.00 0.00 60 1019.7
20260502061630 6 259 3.2 4.8 0.00 0.00 0.00 60 1019.6
20260502061130 6 259 3.2 4.8 0.00 0.00 0.00 60 1019.7
20260502060629 6 259 1.6 4.8 0.00 0.00 0.00 59 1019.8
20260502060130 6 259 1.6 4.8 0.00 0.00 0.00 59 1019.8
20260502055629 6 259 1.6 4.8 0.00 0.00 0.00 59 1019.8
20260502055130 6 259 1.6 4.8 0.00 0.00 0.00 58 1019.8
20260502054627 6 260 1.6 4.8 0.00 0.00 0.00 58 1019.8
20260502054121 6 260 1.6 4.8 0.00 0.00 0.00 58 1019.9
20260502053109 6 260 1.6 4.8 0.00 0.00 0.00 57 1019.8
20260502052603 6 260 1.6 4.8 0.00 0.00 0.00 57 1019.9
20260502052102 6 261 1.6 3.2 0.00 0.00 0.00 57 1019.8
20260502051603 6 261 1.6 3.2 0.00 0.00 0.00 56 1019.7
20260502051101 6 261 1.6 3.2 0.00 0.00 0.00 57 1019.7
20260502050603 6 261 1.6 1.6 0.00 0.00 0.00 56 1019.6
20260502045604 6 261 1.6 3.2 0.00 0.00 0.00 55 1019.7
20260502045102 6 261 1.6 4.8 0.00 0.00 0.00 55 1019.6
20260502044602 6 261 1.6 4.8 0.00 0.00 0.00 55 1019.6
20260502044102 6 261 1.6 4.8 0.00 0.00 0.00 54 1019.7
20260502043602 6 261 1.6 4.8 0.00 0.00 0.00 54 1019.7
20260502043102 6 261 1.6 4.8 0.00 0.00 0.00 54 1019.7
20260502042601 6 261 1.6 4.8 0.00 0.00 0.00 54 1019.7
20260502042100 6 261 1.6 4.8 0.00 0.00 0.00 53 1019.7
20260502041601 6 261 0.0 0.0 0.00 0.00 0.00 53 1019.6
20260502041101 6 261 0.0 3.2 0.00 0.00 0.00 53 1019.7
20260502040602 6 261 1.6 3.2 0.00 0.00 0.00 53 1019.7
20260502035556 7 261 0.0 3.2 0.00 0.00 0.00 51 1019.8
20260502035051 7 261 0.0 0.0 0.00 0.00 0.00 50 1019.8
20260502034545 7 261 0.0 0.0 0.00 0.00 0.00 50 1019.8
20260502034043 7 261 0.0 0.0 0.00 0.00 0.00 50 1019.8
20260502033043 7 261 0.0 0.0 0.00 0.00 0.00 49 1019.8
20260502032541 7 261 0.0 0.0 0.00 0.00 0.00 48 1019.9
20260502032041 7 261 0.0 0.0 0.00 0.00 0.00 48 1019.8
20260502031541 7 261 0.0 0.0 0.00 0.00 0.00 47 1019.9
20260502031039 7 261 0.0 0.0 0.00 0.00 0.00 47 1019.9
20260502030537 7 261 0.0 0.0 0.00 0.00 0.00 46 1019.8
20260502025532 8 261 0.0 0.0 0.00 0.00 0.00 46 1019.9
20260502024031 8 261 0.0 1.6 0.00 0.00 0.00 44 1019.9
20260502023532 8 261 0.0 1.6 0.00 0.00 0.00 44 1019.8
20260502023030 8 261 1.6 3.2 0.00 0.00 0.00 43 1019.8
20260502022530 8 261 1.6 3.2 0.00 0.00 0.00 42 1019.8
20260502022030 8 261 1.6 3.2 0.00 0.00 0.00 41 1019.8
20260502021529 9 261 1.6 3.2 0.00 0.00 0.00 41 1019.7
20260502021029 9 261 1.6 4.8 0.00 0.00 0.00 40 1019.8
20260502020529 9 261 1.6 4.8 0.00 0.00 0.00 39 1019.7
20260502020030 10 261 1.6 3.2 0.00 0.00 0.00 39 1019.6
20260502015530 10 261 1.6 4.8 0.00 0.00 0.00 38 1019.6
20260502015030 10 261 1.6 4.8 0.00 0.00 0.00 37 1019.5
20260502014530 10 261 1.6 4.8 0.00 0.00 0.00 37 1019.5
20260502014028 10 281 1.6 4.8 0.00 0.00 0.00 37 1019.4
20260502013529 10 284 0.0 4.8 0.00 0.00 0.00 36 1019.4
20260502013028 10 284 1.6 4.8 0.00 0.00 0.00 36 1019.4
20260502012529 10 284 1.6 6.4 0.00 0.00 0.00 35 1019.4
20260502012030 10 285 0.0 6.4 0.00 0.00 0.00 34 1019.3
20260502011529 11 355 0.0 4.8 0.00 0.00 0.00 34 1019.3
20260502011029 11 355 1.6 8.0 0.00 0.00 0.00 34 1019.3
20260502010530 11 335 4.8 9.7 0.00 0.00 0.00 34 1019.4
20260502010028 11 355 3.2 9.7 0.00 0.00 0.00 33 1019.4
20260502005030 11 340 3.2 8.0 0.00 0.00 0.00 33 1019.3
20260502004531 11 312 3.2 8.0 0.00 0.00 0.00 33 1019.3
20260502004029 11 162 3.2 8.0 0.00 0.00 0.00 33 1019.2
20260502003529 11 299 3.2 8.0 0.00 0.00 0.00 33 1019.2
20260502003029 11 313 3.2 8.0 0.00 0.00 0.00 33 1019.3
20260502002529 11 318 3.2 12.9 0.00 0.00 0.00 33 1019.3
20260502001529 11 248 3.2 14.5 0.00 0.00 0.00 32 1019.3
20260502000529 11 338 4.8 14.5 0.00 0.00 0.00 34 1019.3
20260502000030 11 248 3.2 9.7 0.00 0.00 0.00 32 1019.1
20260501235529 11 304 1.6 6.4 0.00 0.00 0.00 33 1019.3
20260501235029 11 326 3.2 4.8 0.00 0.00 0.00 33 1019.3
20260501234530 11 326 3.2 8.0 0.00 0.00 0.00 33 1019.4